Location: Newark
(5.8900°S, 42.6378°W)
Time: 02:05:25
(UTC+00:00)

Vanguard 1 Rocket - Pass Details

Date: 21 October 2019
Orbit: 651 x 4225 km, 34.3° (Epoch: 12 November)

Event Time Altitude Azimuth Distance (km) Brightness Sun altitude
Rises 01:46:18 0° 256° (WSW) 5,955 11.8 -69.5°
Enters shadow 01:52:24 - 237° (WSW) 4,442 11.1 -70.4°
Reaches altitude 10° 01:56:07 10° 218° (SW) 3,713 - -70.9°
Maximum altitude 01:57:04 10° 212° (SSW) 3,576 - -71.0°
Drops below altitude 10° 01:57:59 10° 205° (SSW) 3,472 - -71.1°
Sets 02:04:17 0° 161° (SSE) 3,666 - -71.8°
